カタログに戻る

REPLICATOR-2

運用中科学SSO
NORAD 69927·PAYLOAD·🇯🇵 Japan

打ち上げ Jul 7, 2026 から Vandenberg Space Force Base

Loading…

次のパス (今後24時間)

TLE

最新Source: Space-Track

元期: Sep 14, 2026, 13:01 UTC

1 69927U 26156BL  26257.54237068  .00000987  00000-0  10208-3 0  9998
2 69927  97.7457 156.8900 0006967 295.4033  64.6465 14.92297272 10150

AllMySatでREPLICATOR-2をリアルタイム追跡

Download on the App Store